Find Starlink 11367

NORAD ID: 62097 Int'l Des: 2024-220 Owner: SPXS Country: US Constellation: starlink operational
LEOCIRCULAR

当前视图

正在加载3D地球...

About Starlink 11367

Starlink 11367 (NORAD 62097) is a starlink constellation satellite (v2 mini d2c) launched Nov 25, 2024 by SPXS of US. It operates in LEO, CIRCULAR orbit with a mass of 960.00 kg.

关于 Starlink 11367

正在加载描述...

即将过境

Passes for default location (London). Set your location on the main map for personalized predictions.

高度历史

Loading altitude history...

两行轨道根数

1 62097U 24220K 26171.29498895 .00063538 00000-0 49481-3 0 9999
2 62097 42.9990 144.3073 0001396 279.1116 80.9594 15.70843302 91195
Epoch: Jun 20, 2026 • Age: 33 hours

当前状态

高度 356.4 km
速度 7.70 km/s
星下点 -3.05°S, 170.88°E
发射日期 Nov 25, 2024
运行时间 1.5 years
类型 internet

技术详情

分类 Payload
质量 960.00 kg
干质量 910.00 kg
总质量 960.00 kg
长度 0.30 m
直径 4.10 m
跨度 29.00 m
形状 Box + pan
制造商 SPXS
平台类型 Starlink V2MD
阶段状态 In Orbit
所有者/国家 SPXS/US

Most Searched